Location: *
(58.4167°N, 22.5000°E)
Time: 03:01:24
(UTC+00:00)

Cosmos 1844 Rocket - Pass Details

Date: 22 September 2019
Orbit: 824 x 844 km, 71.0° (Epoch: 18 October)

Event Time Altitude Azimuth Distance (km) Brightness Sun altitude
Exits shadow 21:28:09 29° 62° (ENE) 1,503 4.0 -30.4°
Drops below altitude 10° 21:31:08 10° 44° (NE) 2,474 5.4 -30.5°
Sets 21:33:40 0° 38° (NE) 3,410 6.3 -30.6°
